Location: Unspecified
(0.0000°N, 0.0000°E)
Time: 14:02:16
(UTC+01:00)

ATLAS V CENTAUR R/B - Visible Passes

Search period start: 19 December 2014 00:00
Search period end: 29 December 2014 00:00
Orbit: 247 x 30146 km, 17.8° (Epoch: 18 December)

Date Brightness Start Highest point End Pass type
(mag) Time Alt. Az. Time Alt. Az. Time Alt. Az.
19 Dec 7.8 02:47:38 10° WSW 05:08:40 63° SW 10:46:45 10° NE visible
19 Dec 4.7 19:52:38 10° W 19:56:22 62° S 20:18:25 10° ESE visible
20 Dec 11.1 00:47:05 10° E 02:02:26 14° E 02:52:59 10° E visible
20 Dec 6.4 05:38:21 10° WSW 13:02:31 33° NNW 13:09:14 10° NE visible
20 Dec 7.3 22:15:17 10° WSW 22:26:44 55° S 06:12:00 10° ENE visible
22 Dec 8.3 00:40:13 10° WSW 07:28:14 84° NW 08:43:33 10° ENE visible
23 Dec 7.6 03:11:35 10° WSW 05:21:28 56° WSW 11:07:30 10° NE visible
23 Dec 5.5 20:12:52 10° W 20:17:32 54° S 03:38:55 10° E visible
24 Dec 6.1 12:57:38 10° WNW 13:23:19 27° NNW 13:28:40 10° NE visible
24 Dec 7.8 22:34:50 10° WSW 04:46:46 61° E 06:33:43 10° ENE visible
26 Dec 8.5 00:59:27 10° WSW 05:08:17 80° SSW 09:02:00 10° ENE visible
27 Dec 7.3 03:31:53 10° WSW 05:34:10 50° WSW 11:24:17 10° NE visible
27 Dec 6.1 20:29:18 10° WSW 20:35:03 50° S 04:06:20 10° E visible
28 Dec 10.2 06:52:43 10° WSW 07:46:03 14° WSW 09:03:10 10° W visible
28 Dec 8.0 22:50:33 10° WSW 23:09:23 57° SSE 00:00:00 47° ESE visible
